weather.gov     
National Weather Service

Regional Weather Roundup
NWS Homepage
This page is being discontinued on March 12, 2014.
The same data is available at this site. Please update your bookmarks.
Thank you, and we apologize for the inconvenience.
Please send an email to SR-SRH.Webmaster@noaa.gov with any concerns.


Current Version
Previous Version:    01  02  03  04  05  06  07  08  09  10  11  12  13  14  15  16  17  18  19  20  21  22  23  24  25  26  
[Printable]
047
ASUS44 KHUN 300410
RWRHUN

WEATHER ROUNDUP FOR THE TENNESSEE VALLEY
NATIONAL WEATHER SERVICE HUNTSVILLE AL
1100 PM CDT FRI AUG 29 2014

ALZ001>004-300500-
NORTHWEST ALABAMA

CITY           SKY/WX    TMP DP  RH WIND       PRES   REMARKS
COURTLAND HCN    N/A     75 N/A N/A CALM        N/A
RUSSELLVILLE     N/A     68 N/A N/A MISG        N/A
SHOALS AIRPORT PTCLDY    73  66  78 CALM      30.05R
SHOALS TVA RES   N/A     72 N/A N/A MISG        N/A
$$

ALZ005>007-016-300500-
NORTH CENTRAL ALABAMA

CITY           SKY/WX    TMP DP  RH WIND       PRES   REMARKS
CULLMAN AG STN   N/A     72 N/A N/A CALM        N/A
DECATUR AP     CLEAR     73  66  78 CALM      30.06R
HUNTSVILLE AP  PTCLDY    77  66  68 SE3       30.06R
HUN NWS/UAH      N/A     78  62  58 SE3         N/A
MERIDIANVILLE  PTCLDY    70  63  78 CALM      30.06S
VINEMONT AP    FAIR      79  62  56 SE5       30.10R
$$

ALZ008>010-300500-
NORTHEAST ALABAMA

CITY           SKY/WX    TMP DP  RH WIND       PRES   REMARKS
ALBERTVILLE    CLEAR     77  64  65 S5        30.08S
FORT PAYNE     PTCLDY    66  61  82 CALM      30.09S
SCOTTSBORO AP    N/A     72  70  94 CALM      30.08S
SCOTTSBORO HCN   N/A     70 N/A N/A MISG        N/A
VALLEY HEAD      N/A     68 N/A N/A MISG        N/A
$$

TNZ076-096-097-300500-
SOUTHEASTERN MIDDLE TENNESSEE

CITY           SKY/WX    TMP DP  RH WIND       PRES   REMARKS
FAYETTEVILLE   PTCLDY    72  63  73 SE6       30.08R
TULLAHOMA      CLEAR     70  64  83 CALM      30.10R
WINCHESTER     CLEAR     72  64  78 CALM      30.09R
$$

...SURROUNDING SITES...

CITY           SKY/WX    TMP DP  RH WIND       PRES   REMARKS
ATLANTA        MOCLDY    81  61  50 SE5       30.11R
ANNISTON       PTCLDY    74  68  81 CALM      30.08S
BIRMINGHAM     PTCLDY    82  62  50 SE5       30.08R
CHATTANOOGA    PTCLDY    74  64  71 CALM      30.09R
CORINTH          N/A     72  68  88 CALM      30.01R
DALTON         CLEAR     68  66  94 CALM      30.10R
GADSDEN        CLEAR     72  61  68 CALM      30.07S
GOLDEN TRNGL   PTCLDY    77  64  65 SE6       30.02R
HALEYVILLE     FAIR      71  66  84 CALM      30.09R
JACKSON TN     CLOUDY    77  67  71 S3        30.00S
LEWISBURG      FAIR      68  65  90 CALM      30.05R
MEMPHIS        MOCLDY    82  70  66 CALM      29.99R
NASHVILLE      PTCLDY    76  64  66 CALM      30.05R
ROME           CLEAR     71  65  81 CALM      30.08R
SAVANNAH       CLEAR     70  70 100 CALM      30.03R
TUPELO         PTCLDY    80  66  62 VRB3      30.01R
TUSCALOOSA     PTCLDY    75  69  81 CALM      30.03R
$$

...GULF COAST WEATHER...

CITY           SKY/WX    TMP DP  RH WIND       PRES   REMARKS
GULFPORT       CLOUDY    81  77  88 SE14      30.00S
PASCAGOULA     CLOUDY    77  75  93 SE8       30.03R
MOBILE         CLOUDY    77  76  96 S9        30.04S
GULF SHORES    CLOUDY    77  74  91 CALM      30.05S
PENSACOLA      CLOUDY    78  73  84 SW7       30.04F
DESTIN         PTCLDY    85  77  77 S6        30.05F HX  95
PANAMA CITY    PTCLDY    79  77  92 S7        30.07S
APPALACHICOLA  CLEAR     82  75  79 SW5       30.06F
$$





U.S. Dept. of Commerce
NOAA National Weather Service
1325 East West Highway
Silver Spring, MD 20910
E-mail: w-nws.webmaster@noaa.gov
Page last modified: May 16, 2007
NATIONAL WEATHER SERVICE: for Safety, for Work, for Fun - FOR LIFE